Location: Allos
(44.2333°N, 6.6333°E)
Time: 19:01:07
(UTC+00:00)

Cosmos 2228 Rocket - Pass Details

Date: 27 April 2021
Orbit: 617 x 652 km, 82.5° (Epoch: 05 May)

Event Time Altitude Azimuth Distance (km) Brightness Sun altitude
Exits shadow 00:23:42 19° 317° (NW) 1,490 5.3 -30.7°
Drops below altitude 10° 00:25:41 10° 341° (NNW) 1,994 6.3 -30.6°
Sets 00:28:20 0° 356° (N) 2,908 7.5 -30.5°
